Location: Arboyeti
(42.1122°N, 44.6017°E)
Time: 21:17:48
(UTC+00:00)

SME Rocket - Pass Details

Date: 19 April 2021
Orbit: 550 x 2651 km, 99.9° (Epoch: 16 May)

Event Time Altitude Azimuth Distance (km) Brightness Sun altitude
Rises 16:42:00 0° 10° (N) 2,754 6.6 -10.3°
Reaches altitude 10° 16:43:57 10° 6° (N) 1,906 5.8 -10.6°
Maximum altitude 16:47:49 57° 287° (WNW) 784 4.0 -11.2°
Drops below altitude 10° 16:52:50 10° 210° (SSW) 2,467 6.2 -12.1°
Sets 16:55:39 0° 206° (SSW) 3,665 7.0 -12.5°
